Location: Puketoi
(40.5833°S, 176.0167°E)
Time: 01:10:18
(UTC+00:00)

COSMOS 2455 - Pass Details

Date: 04 October 2023
Orbit: 902 x 907 km, 67.1° (Epoch: 03 December)

Event Time Altitude Azimuth Distance (km) Brightness Sun altitude
Rises 16:42:09 0° 199° (SSW) 3,561 5.9 -12.5°
Reaches altitude 10° 16:45:45 10° 178° (S) 2,614 5.5 -11.9°
Maximum altitude 16:49:28 16° 140° (SE) 2,178 5.7 -11.2°
Drops below altitude 10° 16:53:09 10° 102° (ESE) 2,601 6.9 -10.5°
Sets 16:56:42 0° 81° (E) 3,535 7.3 -9.8°
